Regional Weather Roundup
Issued by NWS

Home | Current Version | Previous Version | Text Only | Print | Product List | Glossary Off
Versions: 1 2 3 4 5 6 7 8 9 10 11 12 13 14 15 16 17 18 19 20 21 22 23 24 25 26 27 28 29 30 31 32 33 34 35 36 37 38 39 40 41 42 43 44 45 46 47 48 49 50

000
ASUS43 KLSX 190759
RWRMO

WEATHER SUMMARY FOR MISSOURI
NATIONAL WEATHER SERVICE SPRINGFIELD MO
300 AM CDT FRI SEP 19 2014

NOTE: "FAIR" INDICATES FEW OR NO CLOUDS BELOW 12,000 FEET WITH NO
       SIGNIFICANT WEATHER AND/OR OBSTRUCTIONS TO VISIBILITY.
       CURRENT SKY AND/OR WEATHER CONDITIONS ARE NOT AVAILABLE FOR
       CHILLICOTHE AND FARMINGTON.

MOZ001>031-035>038-043-044-053-054-190900-
...NORTHERN AND WESTERN MISSOURI...

CITY           SKY/WX    TMP DP  RH WIND       PRES   REMARKS
KANSAS CTY INT PTCLDY    61  60  97 SE8       30.01F
KANSAS C DTWN  MOCLDY    63  60  90 E3        30.01F
LEE`S SUMMIT   CLOUDY    62  60  93 SE6       30.03F
ST JOSEPH      PTCLDY    60  59  96 SE5       30.01F FOG
KIRKSVILLE     CLEAR     53  50  89 SE5       30.07S

$$
MOZ066>068-077>081-088>096-101>105-190900-
...SOUTHWEST MISSOURI...

CITY           SKY/WX    TMP DP  RH WIND       PRES   REMARKS
SPRINGFIELD    MOCLDY    62  60  93 SE7       30.03F
JOPLIN         CLEAR     62  61  96 SE6       30.01F

$$
MOZ032>034-039>042-045>050-055>058-069>072-190900-
...CENTRAL MISSOURI...

CITY           SKY/WX    TMP DP  RH WIND       PRES   REMARKS
COLUMBIA       PTCLDY    60  56  86 E7          N/A
JEFFERSON CITY CLEAR     58  56  93 SE3       30.05F
ROLLA          CLEAR     57  56  96 E7        30.05F FOG
SEDALIA        FOG       59  57  93 SE5       30.05F VSB 1/4
OSAGE BEACH    CLOUDY    57  54  88 CALM      30.05F VSB<1/4

$$
MOZ051-052-059>065-190900-
...EAST CENTRAL MISSOURI...

CITY           SKY/WX    TMP DP  RH WIND       PRES   REMARKS
ST LOUIS INTL  CLEAR     59  53  80 SE5       30.08F
SPIRIT OF STL  CLEAR     52  51  97 CALM      30.07S FOG
ST CHARLES     CLEAR     55  52  89 CALM      30.08S

$$
MOZ072>076-082>087-097>100-106>115-190900-
...SOUTH CENTRAL AND SOUTHEAST MISSOURI...

CITY           SKY/WX    TMP DP  RH WIND       PRES   REMARKS
CAPE GIRARDEAU PTCLDY    55  54  96 CALM      30.05F
FARMINGTON     PTCLDY    55  52  88 CALM      30.09S
POPLAR BLUFF   MOCLDY    60  55  83 NE5       30.02F
WEST PLAINS    FOG       55  54  96 NE3       30.06F VSB 3/4

$$


USA.gov is the U.S. government's official web portal to all federal, state and local government web resources and services.